Flag for Bahrain Weather past 2 weeks in Manama, Bahrain

Now
64 °F

Passing clouds.


Feels Like: 64 °F
Forecast: 56 / 68 °F
Wind: 5 mph from North

Location: Bahrain International Airport

Current Time: Jan 25, 2015 at 7:29:02 PM

Latest Report: Jan 25, 2015 at 6:00 PM


Visibility: 5 mi

Pressure: 30.24 "Hg

Humidity: 78%

Dew point: 57 °F

Location of ManamaLocation

Historic Weather in Manama — Graph

°F

Manama temperature yesterday

Maximum temperature yesterday: 70 °F (at 12:00 PM)
Minimum temperature yesterday: 54 °F (at 4:00 AM)
Average temperature yesterday: 62 °F

Past Weeks' High & Low Weather Summary

 TemperatureHumidityPressure
High70 °F (Jan 15, 1:00 PM)100% (Jan 17, 7:00 AM)30.33 "Hg (Jan 17, 7:00 AM)
Low54 °F (Jan 11, 5:00 AM)27% (Jan 24, 12:00 PM)30.01 "Hg (Jan 18, 2:00 PM)
Average61 °F67%30.16 "Hg
* Reported Jan 10 6:00 PM — Jan 25 6:00 PM, Manama, Weather by CustomWeather, © 2014

Note: Actual official high and low records may vary slightly from our data, if they occured in-between our weather recording intervals... More about our weather records

Advertising

Manama weather history for previous 24 hours

 ConditionsComfort  
Time TempWeatherWind HumidityBarometerVisibility
6:00 PM
Jan 25
64 °FPassing clouds.5 mph78%30.24 "Hg5 mi
5:00 PM66 °FPassing clouds.6 mph73%30.21 "Hg5 mi
4:00 PM68 °FPassing clouds.6 mph69%30.21 "Hg5 mi
3:00 PM68 °FPassing clouds.6 mph64%30.18 "Hg5 mi
2:00 PM68 °FPassing clouds.7 mph64%30.21 "Hg6 mi
1:00 PM68 °FPassing clouds.6 mph69%30.21 "HgN/A
12:00 PM68 °FPassing clouds.7 mph60%30.24 "HgN/A
11:00 AM66 °FPassing clouds.6 mph68%30.24 "HgN/A
10:00 AM64 °FPassing clouds.7 mph73%30.27 "HgN/A
9:00 AM64 °FSunny.8 mph78%30.27 "Hg5 mi
8:00 AM61 °FSunny.3 mph88%30.24 "Hg4 mi
7:00 AM57 °FFog.2 mph88%30.24 "Hg1 mi
6:00 AM57 °FClear.3 mph82%30.21 "Hg4 mi
5:00 AM55 °FClear.1 mph82%30.18 "Hg4 mi
4:00 AM59 °FCool.1 mph77%30.18 "Hg5 mi
3:00 AM57 °FClear.2 mph77%30.18 "Hg5 mi
2:00 AM59 °FClear.1 mph82%30.18 "Hg10 mi
1:00 AM59 °FClear.2 mph72%30.18 "Hg10 mi
12:00 AM59 °FClear.5 mph72%30.18 "Hg10 mi
11:00 PM
Jan 24
61 °FClear.6 mph72%30.18 "Hg10 mi
10:00 PM61 °FClear.6 mph63%30.18 "Hg10 mi
9:00 PM59 °FClear.3 mph59%30.18 "Hg10 mi
8:00 PM61 °FClear.2 mph59%30.18 "Hg10 mi
7:00 PM63 °FClear.3 mph56%30.18 "Hg10 mi
Weather by CustomWeather, © 2014

See weather overviewHow to use our weather pages